Skip Page Navigation
NASA JPL Caltech
NASA Logo - Jet Propulsion Laboratory + View the NASA Portal
+ Center for Near-Earth Object Studies
JPL Home Earth Solar System Stars & Galaxies Technology
JPL Solar System Dynamics
BODIES ORBITS EPHEMERIDES TOOLS PHYSICAL DATA DISCOVERY FAQ SITE MAP
JPL Small-Body Database Browser
Search: [ help ]  
25062 Rasmussen (1998 QH71)
Classification: Main-belt Asteroid          SPK-ID: 2025062
Ephemeris | Orbit Diagram | Orbital Elements | Mission Design | Physical Parameters | Discovery Circumstances | Close-Approach Data ]

[ show orbit diagram ]
Orbital Elements at Epoch 2459000.5 (2020-May-31.0) TDB
Reference: JPL 24 (heliocentric ecliptic J2000)
 Element Value Uncertainty (1-sigma)   Units 
e .1246662707795211 3.0066e-08  
a 2.415947718881928 9.1462e-09 au
q 2.114760526370627 7.5975e-08 au
i 5.463759935750614 3.4655e-06 deg
node 235.5785652816991 3.8615e-05 deg
peri 59.09102364012895 4.249e-05 deg
M 319.8247255162457 1.6519e-05 deg
tp 2459153.568588202756
(2020-Oct-31.06858820)
6.2993e-05 TDB
period 1371.607100662743
3.76
7.7888e-06
2.132e-08
d
yr
n .26246583283657 1.4904e-09 deg/d
Q 2.717134911393228 1.0286e-08 au
  Orbit Determination Parameters
   # obs. used (total)      1178  
   data-arc span      14939 days (40.90 yr)  
   first obs. used      1979-07-24  
   last obs. used      2020-06-17  
   planetary ephem.      DE431  
   SB-pert. ephem.      SB431-N16  
   condition code      0  
   norm. resid. RMS      .51432  
   source      ORB  
   producer      Otto Matic  
   solution date      2020-Jun-23 19:18:48  

Additional Information
 Earth MOID = 1.10497 au 
 Jupiter MOID = 2.44666 au 
 T_jup = 3.500 
[ show covariance matrix ]

Ephemeris | Orbit Diagram | Orbital Elements | Mission Design | Physical Parameters | Discovery Circumstances | Close-Approach Data ]

Physical Parameter Table
Parameter Symbol Value Units Sigma Reference Notes
absolute magnitude H 15.5   n/a MPO270297  

25062 Rasmussen           Discovered 1998 Aug. 24 by the Lincoln Laboratory Near-Earth Asteroid Research Team at Socorro.
Jesper Lykke Rasmussen (b. 1989) was awarded second place in the 2008 Intel International Science and Engineering Fair for his environmental sciences team project. He attends the Vejle Technical High School, Vejle, Denmark.
NOTE: some special characters may not display properly (any characters within {} are an attempt to place the proper accent above a character)
Reference: 20080917/MPCPages.arcLast Updated: 2008-09-19

[ show close-approach data ]
Alternate Designations
 1998 QH71 = 1979 OY8 
Ephemeris | Orbit Diagram | Orbital Elements | Mission Design | Physical Parameters | Discovery Circumstances | Close-Approach Data ]
ABOUT SSD CREDITS/AWARDS PRIVACY/COPYRIGHT GLOSSARY LINKS
FirstGov 2020-Oct-20 04:04 UT
(server date/time)  
NASA Home Page
Site Manager:   Ryan S. Park
Webmaster  Alan B. Chamberlin